TimeCDT,TemperatureF,Dew PointF,Humidity,Sea Level PressureIn,VisibilityMPH,Wind Direction,Wind SpeedMPH,Gust SpeedMPH,PrecipitationIn,Events,Conditions,WindDirDegrees,DateUTC
12:15 AM,80.2,52.9,39,30.02,10.0,SSE,9.2,-,N/A,,Clear,150,2013-08-21 05:15:00
12:35 AM,79.2,53.2,41,30.02,10.0,SSE,6.9,-,N/A,,Clear,150,2013-08-21 05:35:00
12:55 AM,78.1,54.3,44,30.02,10.0,SSE,8.1,-,N/A,,Clear,160,2013-08-21 05:55:00
1:15 AM,77.2,54.5,45,30.02,10.0,SSE,8.1,-,N/A,,Clear,160,2013-08-21 06:15:00
1:35 AM,77.0,54.7,46,30.03,10.0,SSE,8.1,-,N/A,,Clear,150,2013-08-21 06:35:00
1:55 AM,77.0,54.7,46,30.02,10.0,SSE,11.5,-,N/A,,Clear,150,2013-08-21 06:55:00
2:15 AM,77.2,53.8,44,30.03,10.0,SE,10.4,-,N/A,,Clear,140,2013-08-21 07:15:00
2:35 AM,75.7,54.3,47,30.03,10.0,SSE,8.1,-,N/A,,Clear,150,2013-08-21 07:35:00
2:55 AM,77.0,55.6,47,30.03,-9999.0,SSE,10.4,-,N/A,,Clear,160,2013-08-21 07:55:00
3:15 AM,76.1,56.5,50,30.03,10.0,SSE,9.2,-,N/A,,Clear,150,2013-08-21 08:15:00
3:35 AM,76.5,57.0,51,30.03,10.0,SSE,11.5,-,N/A,,Clear,160,2013-08-21 08:35:00
3:55 AM,76.1,57.7,53,30.03,10.0,SSE,8.1,-,N/A,,Clear,160,2013-08-21 08:55:00
4:15 AM,75.2,58.6,56,30.04,10.0,South,8.1,-,N/A,,Clear,170,2013-08-21 09:15:00
4:35 AM,75.2,59.0,57,30.04,10.0,South,6.9,-,N/A,,Clear,170,2013-08-21 09:35:00
4:55 AM,74.8,59.7,59,30.04,10.0,SSE,5.8,-,N/A,,Clear,160,2013-08-21 09:55:00
5:15 AM,74.3,60.1,61,30.04,10.0,South,5.8,-,N/A,,Clear,170,2013-08-21 10:15:00
5:35 AM,73.4,60.6,64,30.05,10.0,SSE,4.6,-,N/A,,Clear,160,2013-08-21 10:35:00
5:55 AM,73.6,60.8,64,30.05,10.0,South,3.5,-,N/A,,Clear,170,2013-08-21 10:55:00
6:15 AM,73.0,61.0,66,30.05,10.0,SSE,3.5,-,N/A,,Clear,160,2013-08-21 11:15:00
6:35 AM,72.0,61.0,68,30.06,10.0,Calm,Calm,-,N/A,,Clear,0,2013-08-21 11:35:00
6:55 AM,72.5,61.3,68,30.06,10.0,South,3.5,-,N/A,,Clear,180,2013-08-21 11:55:00
7:15 AM,71.2,61.3,71,30.07,10.0,SSE,3.5,-,N/A,,Clear,160,2013-08-21 12:15:00
7:35 AM,70.9,61.7,73,30.07,10.0,Calm,Calm,-,N/A,,Scattered Clouds,0,2013-08-21 12:35:00
7:55 AM,72.7,62.4,70,30.07,10.0,SSE,3.5,-,N/A,,Scattered Clouds,150,2013-08-21 12:55:00
8:15 AM,74.8,63.1,67,30.08,-9999.0,South,3.5,-,N/A,,Clear,170,2013-08-21 13:15:00
8:35 AM,76.5,63.9,65,30.08,-9999.0,South,4.6,-,N/A,,Clear,190,2013-08-21 13:35:00
8:55 AM,79.3,64.6,60,30.09,-9999.0,SSW,8.1,-,N/A,,Scattered Clouds,200,2013-08-21 13:55:00
9:15 AM,80.8,64.9,58,30.09,-9999.0,South,8.1,-,N/A,,Scattered Clouds,190,2013-08-21 14:15:00
9:35 AM,81.7,65.3,57,30.09,10.0,SW,4.6,-,N/A,,Scattered Clouds,220,2013-08-21 14:35:00
9:55 AM,82.8,65.3,55,30.10,10.0,WSW,5.8,-,N/A,,Clear,250,2013-08-21 14:55:00
10:15 AM,84.0,64.9,53,30.10,10.0,WSW,4.6,-,N/A,,Clear,240,2013-08-21 15:15:00
10:35 AM,86.0,64.0,48,30.10,10.0,SW,4.6,-,N/A,,Clear,230,2013-08-21 15:35:00
10:55 AM,86.7,63.5,46,30.10,10.0,Calm,Calm,-,N/A,,Clear,0,2013-08-21 15:55:00
11:15 AM,88.9,61.3,40,30.10,10.0,South,4.6,-,N/A,,Clear,180,2013-08-21 16:15:00
11:35 AM,90.0,59.5,36,30.10,10.0,SSE,5.8,-,N/A,,Clear,150,2013-08-21 16:35:00
11:55 AM,91.9,56.8,31,30.09,10.0,South,6.9,-,N/A,,Scattered Clouds,180,2013-08-21 16:55:00
12:15 PM,90.1,51.8,27,30.09,10.0,SSE,4.6,19.6,N/A,,Mostly Cloudy,160,2013-08-21 17:15:00
12:35 PM,92.1,52.9,26,30.08,10.0,South,3.5,-,N/A,,Mostly Cloudy,180,2013-08-21 17:35:00
12:55 PM,91.6,51.4,25,30.08,10.0,SSE,3.5,-,N/A,,Mostly Cloudy,150,2013-08-21 17:55:00
1:15 PM,94.5,54.1,26,30.07,10.0,ESE,11.5,-,N/A,,Mostly Cloudy,110,2013-08-21 18:15:00
1:35 PM,92.8,54.7,27,30.07,10.0,ESE,4.6,-,N/A,,Scattered Clouds,110,2013-08-21 18:35:00
1:55 PM,93.4,56.3,29,30.06,10.0,ESE,15.0,24.2,N/A,,Mostly Cloudy,120,2013-08-21 18:55:00
2:15 PM,94.3,57.0,29,30.06,10.0,East,4.6,21.9,N/A,,Scattered Clouds,80,2013-08-21 19:15:00
2:35 PM,93.2,55.6,28,30.05,10.0,SSE,9.2,-,N/A,,Scattered Clouds,150,2013-08-21 19:35:00
2:55 PM,93.7,56.1,28,30.05,10.0,SE,9.2,-,N/A,,Mostly Cloudy,140,2013-08-21 19:55:00
3:15 PM,92.7,54.5,27,30.04,10.0,SSE,11.5,-,N/A,,Mostly Cloudy,160,2013-08-21 20:15:00
3:35 PM,94.1,53.8,26,30.03,10.0,SSE,11.5,16.1,N/A,,Scattered Clouds,150,2013-08-21 20:35:00
3:55 PM,94.5,54.7,26,30.03,10.0,SE,13.8,-,N/A,,Clear,140,2013-08-21 20:55:00
4:15 PM,92.5,54.0,27,30.02,10.0,SSE,4.6,9.2,N/A,,Clear,160,2013-08-21 21:15:00
4:35 PM,91.9,55.6,29,30.02,10.0,South,8.1,-,N/A,,Clear,170,2013-08-21 21:35:00
4:55 PM,92.5,57.0,30,30.01,10.0,South,6.9,-,N/A,,Clear,170,2013-08-21 21:55:00
5:15 PM,92.5,57.0,30,30.01,10.0,SSE,8.1,-,N/A,,Clear,150,2013-08-21 22:15:00
5:35 PM,92.5,56.8,30,30.01,10.0,Calm,Calm,-,N/A,,Clear,0,2013-08-21 22:35:00
5:55 PM,92.3,56.5,30,30.00,10.0,SE,5.8,-,N/A,,Scattered Clouds,130,2013-08-21 22:55:00
6:15 PM,91.9,55.9,30,29.99,10.0,SSE,12.7,-,N/A,,Scattered Clouds,160,2013-08-21 23:15:00
6:35 PM,91.4,55.9,30,29.99,10.0,South,6.9,-,N/A,,Clear,170,2013-08-21 23:35:00
6:55 PM,90.9,56.5,31,29.99,10.0,SSE,4.6,-,N/A,,Clear,150,2013-08-21 23:55:00
7:15 PM,90.3,57.4,33,29.99,10.0,SE,3.5,-,N/A,,Clear,130,2013-08-22 00:15:00
7:35 PM,89.6,57.7,34,30.00,10.0,Calm,Calm,-,N/A,,Clear,0,2013-08-22 00:35:00
7:55 PM,88.3,59.5,38,30.00,10.0,East,4.6,-,N/A,,Scattered Clouds,90,2013-08-22 00:55:00
8:15 PM,87.8,59.9,39,30.00,10.0,East,5.8,-,N/A,,Scattered Clouds,90,2013-08-22 01:15:00
8:35 PM,86.9,60.3,41,30.01,10.0,ESE,4.6,-,N/A,,Mostly Cloudy,120,2013-08-22 01:35:00
8:55 PM,85.6,60.4,42,30.01,10.0,East,5.8,-,N/A,,Clear,100,2013-08-22 01:55:00
9:15 PM,84.4,60.8,45,30.02,10.0,ESE,6.9,-,N/A,,Clear,110,2013-08-22 02:15:00
9:35 PM,83.5,61.0,46,30.03,10.0,ESE,6.9,-,N/A,,Clear,120,2013-08-22 02:35:00
9:55 PM,82.8,61.0,48,30.04,10.0,SE,6.9,-,N/A,,Scattered Clouds,130,2013-08-22 02:55:00
10:15 PM,82.4,60.8,48,30.05,10.0,SE,6.9,-,N/A,,Scattered Clouds,130,2013-08-22 03:15:00
10:35 PM,81.7,60.8,49,30.05,10.0,SSE,6.9,-,N/A,,Scattered Clouds,150,2013-08-22 03:35:00
10:55 PM,81.7,61.5,50,30.06,10.0,SE,8.1,-,N/A,,Clear,140,2013-08-22 03:55:00
11:15 PM,81.5,62.1,52,30.06,10.0,SSE,9.2,-,N/A,,Clear,150,2013-08-22 04:15:00
11:35 PM,81.0,63.1,54,30.06,10.0,SSE,8.1,-,N/A,,Clear,150,2013-08-22 04:35:00
11:55 PM,80.6,63.7,56,30.06,10.0,SSE,9.2,-,N/A,,Clear,150,2013-08-22 04:55:00